Keahole Point, HI

1:25 AM HST on November 24, 2017 (GMT -1000)
Kona International At Keahole

Weather History for PHKO - February, 2014

Change the Weather History Date:

Wednesday, February 5, 2014

  Actual Average Record
Temperature  
Mean Temperature 76 °F -  
Max Temperature 81 °F 79 °F 87 °F (1986)
Min Temperature 70 °F 66 °F 62 °F (1998)
Cooling Degree Days 10    
Growing Degree Days 26 (Base 50)    
Moisture  
Dew Point 67 °F    
Average Humidity 73    
Maximum Humidity 87    
Minimum Humidity 62    
Precipitation  
Precipitation 0.00 in - - ()
Sea Level Pressure  
Sea Level Pressure 29.90 in    
Wind  
Wind Speed 7 mph (NNE)    
Max Wind Speed 15 mph    
Max Gust Speed -    
Visibility 10 miles    
Events      
Averages and records for this station are not official NWS values.
T = Trace of Precipitation, MM = Missing Value Source: NWS Daily Summary

Daily Weather History Graph

Daily Weather History Graph

Search for Another Location

Airport or City:

Trip Planner

Search our weather history database for the weather conditions in past years. The results will help you decide how hot, cold, wet, or windy it might be!

Date:

Astronomy

Feb. 05, 2014 Rise Set
Actual Time 6:57 AM HST 6:18 PM HST
Civil Twilight 6:35 AM HST 6:41 PM HST
Nautical Twilight 6:08 AM HST 7:07 PM HST
Astronomical Twilight 5:42 AM HST 7:33 PM HST
Moon 11:17 AM HST (2/5) No Moon Set
Length of Visible Light 12h 06m
Length of Day
11h 21m
Waxing Crescent, 41% of the Moon is Illuminated
Feb 5
Waxing Crescent
Feb 6
First Quarter
Feb 14
Full
Feb 22
Last Quarter
Feb 28
New

Hourly Weather History & Observations

Time (HST) Temp. Heat Index Dew Point Humidity Pressure Visibility Wind Dir Wind Speed Gust Speed Precip Events Conditions
12:53 AM 72.0 °F - 68.0 °F 87% 29.90 in 10.0 mi NE 6.9 mph - N/A   Partly Cloudy
1:53 AM 72.0 °F - 66.9 °F 84% 29.89 in 10.0 mi NE 6.9 mph - N/A   Overcast
2:53 AM 72.0 °F - 66.0 °F 81% 29.87 in 10.0 mi NE 6.9 mph - N/A   Clear
3:53 AM 71.1 °F - 66.0 °F 84% 29.87 in 10.0 mi ENE 5.8 mph - N/A   Clear
4:53 AM 71.1 °F - 63.0 °F 75% 29.87 in 10.0 mi South 5.8 mph - N/A   Clear
5:53 AM 71.1 °F - 62.1 °F 73% 29.89 in 10.0 mi ESE 5.8 mph - N/A   Clear
6:53 AM 70.0 °F - 63.0 °F 78% 29.90 in 10.0 mi ESE 6.9 mph - N/A   Clear
7:53 AM 73.0 °F - 62.1 °F 68% 29.91 in 10.0 mi ESE 5.8 mph - N/A   Clear
8:53 AM 78.1 °F - 64.0 °F 62% 29.92 in 10.0 mi South 3.5 mph - N/A   Clear
9:53 AM 78.1 °F - 66.0 °F 66% 29.94 in 10.0 mi WSW 4.6 mph - N/A   Clear
10:53 AM 79.0 °F - 68.0 °F 69% 29.93 in 10.0 mi NW 8.1 mph - N/A   Clear
11:53 AM 80.1 °F 82.9 °F 69.1 °F 69% 29.90 in 10.0 mi WNW 9.2 mph - N/A   Clear
12:53 PM 81.0 °F 83.3 °F 66.9 °F 62% 29.87 in 10.0 mi Variable 6.9 mph - N/A   Clear
1:53 PM 81.0 °F 83.8 °F 68.0 °F 65% 29.84 in 10.0 mi WSW 5.8 mph - N/A   Clear
2:53 PM 80.1 °F 82.7 °F 68.0 °F 67% 29.83 in 10.0 mi WSW 5.8 mph - N/A   Clear
3:53 PM 80.1 °F 82.7 °F 68.0 °F 67% 29.85 in 10.0 mi Calm Calm - N/A   Clear
4:53 PM 80.1 °F 82.7 °F 68.0 °F 67% 29.88 in 10.0 mi North 8.1 mph - N/A   Scattered Clouds
5:53 PM 79.0 °F - 68.0 °F 69% 29.88 in 10.0 mi North 13.8 mph - N/A   Clear
6:53 PM 77.0 °F - 70.0 °F 79% 29.90 in 10.0 mi North 15.0 mph - N/A   Clear
7:53 PM 77.0 °F - 69.1 °F 76% 29.93 in 10.0 mi NNE 12.7 mph - N/A   Clear
8:53 PM 75.9 °F - 69.1 °F 79% 29.95 in 10.0 mi NNE 12.7 mph - N/A   Partly Cloudy
9:53 PM 75.9 °F - 68.0 °F 76% 29.95 in 10.0 mi NNE 15.0 mph - N/A   Partly Cloudy
10:53 PM 75.9 °F - 66.9 °F 74% 29.95 in 10.0 mi North 9.2 mph - N/A   Clear
11:53 PM 75.0 °F - 66.9 °F 76% 29.95 in 10.0 mi NE 4.6 mph - N/A   Clear